カタログに戻る

DELTA 1 DEB *

運用中LEO
NORAD 6213·DEBRIS·🇺🇸 United States

打ち上げ Oct 2, 1966 から Vandenberg Space Force Base

Loading…

次のパス (今後24時間)

TLE

最新Source: Space-Track

元期: Sep 14, 2026, 07:42 UTC

1 06213U 66087E   26257.32086900  .00001867  00000-0  43431-2 0  9998
2 06213 101.7708 290.6429 0044685  43.0158  22.2310 13.26023856808167

AllMySatでDELTA 1 DEB *をリアルタイム追跡

Download on the App Store